FW2545 Weather Reports


Display with metric or nautical units.
time (UTC)temp
F
wind
direction
speed
MPH
gust
MPH
rain 1hr
in
rain 24hr
in
rain mn
in
humidity
%
barometer
mb
20260831220143 88 41 5.0 13.0 0.00 0.00 0.00 28 1012.7
20260831213144 87 63 2.0 10.0 0.00 0.00 0.00 29 1013.2
20260831211532 83 60 4.0 12.0 0.00 0.00 0.00 32 1013.4
20260831210031 81 39 5.0 11.0 0.00 0.00 0.00 33 1013.6
20260831203034 79 18 4.0 7.0 0.00 0.00 0.00 35 1014.1
20260831200031 77 42 4.0 10.0 0.00 0.00 0.00 38 1014.7
20260831194534 77 29 5.0 15.0 0.00 0.00 0.00 38 1014.9
20260831191530 76 44 6.0 12.0 0.00 0.00 0.00 40 1015.4
20260831190147 74 52 5.0 14.0 0.00 0.00 0.00 43 1015.7
20260831184531 72 33 5.0 12.0 0.00 0.00 0.00 46 1016.0
20260831183037 71 18 5.0 13.0 0.00 0.00 0.00 48 1016.3
20260831181530 70 30 2.0 9.0 0.00 0.00 0.00 52 1016.5
20260831180031 68 5 3.0 8.0 0.00 0.00 0.00 55 1016.8
20260831174532 67 343 2.0 7.0 0.00 0.00 0.00 56 1016.9
20260831173031 65 11 3.0 7.0 0.00 0.00 0.00 57 1017.0
20260831171609 65 1 3.0 7.0 0.00 0.00 0.00 59 1017.2
20260831170031 63 319 4.0 9.0 0.00 0.00 0.00 61 1017.2
20260831164642 62 339 3.0 7.0 0.00 0.00 0.00 66 1017.3
20260831161536 58 244 0.0 4.0 0.00 0.00 0.00 73 1017.6
20260831160033 56 247 0.0 0.0 0.00 0.00 0.00 77 1017.7
20260831154532 53 247 0.0 1.0 0.00 0.00 0.00 81 1017.7
20260831153036 50 247 0.0 1.0 0.00 0.00 0.00 83 1017.8
20260831151536 48 247 1.0 3.0 0.00 0.00 0.00 85 1017.8
20260831150143 46 233 0.0 2.0 0.00 0.00 0.00 86 1017.6
20260831144644 44 221 0.0 1.0 0.00 0.00 0.00 87 1017.5
20260831143034 44 202 0.0 0.0 0.00 0.00 0.00 86 1017.2
20260831141531 43 214 0.0 2.0 0.00 0.00 0.00 85 1017.1
20260831140031 43 246 1.0 3.0 0.00 0.00 0.00 84 1017.0
20260831134533 44 202 0.0 2.0 0.00 0.00 0.00 84 1017.0
20260831133033 44 204 1.0 3.0 0.00 0.00 0.00 84 1017.0
20260831131536 44 206 2.0 6.0 0.00 0.00 0.00 84 1017.0
20260831124531 45 215 2.0 4.0 0.00 0.00 0.00 83 1017.0
20260831123028 45 237 1.0 3.0 0.00 0.00 0.00 82 1017.0
20260831121533 45 233 2.0 3.0 0.00 0.00 0.00 81 1017.0
20260831120034 45 238 2.0 4.0 0.00 0.00 0.00 80 1017.0
20260831113029 46 229 2.0 4.0 0.00 0.00 0.00 82 1017.1
20260831111531 46 213 2.0 4.0 0.00 0.00 0.00 81 1017.0
20260831110030 46 223 2.0 5.0 0.00 0.00 0.00 80 1017.0
20260831104536 47 242 1.0 5.0 0.00 0.00 0.00 80 1017.0
20260831103033 47 233 2.0 5.0 0.00 0.00 0.00 79 1017.0
20260831100034 48 202 1.0 3.0 0.00 0.00 0.00 79 1017.3
20260831093035 48 222 1.0 3.0 0.00 0.00 0.00 77 1017.5
20260831091611 49 203 0.0 2.0 0.00 0.00 0.00 77 1017.6
20260831090035 49 233 0.0 3.0 0.00 0.00 0.00 77 1017.7
20260831084533 49 191 0.0 2.0 0.00 0.00 0.00 77 1017.9
20260831083032 49 225 0.0 3.0 0.00 0.00 0.00 75 1017.9
20260831080109 50 239 0.0 1.0 0.00 0.00 0.00 74 1017.9
20260831074534 50 210 1.0 4.0 0.00 0.00 0.00 73 1018.0
20260831070031 51 206 1.0 4.0 0.00 0.00 0.00 72 1018.1
20260831064536 51 202 1.0 4.0 0.00 0.00 0.00 73 1018.2
20260831063031 51 202 1.0 5.0 0.00 0.00 0.00 73 1018.3
20260831061534 52 213 0.0 4.0 0.00 0.00 0.00 72 1018.4
20260831060032 52 202 0.0 3.0 0.00 0.00 0.00 72 1018.3
20260831051530 53 250 1.0 4.0 0.00 0.00 0.00 73 1018.5
20260831050030 53 268 0.0 2.0 0.00 0.00 0.00 74 1018.5
20260831044530 53 292 0.0 2.0 0.00 0.00 0.00 73 1018.5
20260831034529 57 22 0.0 1.0 0.00 0.00 0.00 65 1018.3
20260831033034 59 341 0.0 0.0 0.00 0.00 0.00 60 1018.2
20260831031531 61 335 0.0 2.0 0.00 0.00 0.00 55 1018.2
20260831030034 64 337 3.0 5.0 0.00 0.00 0.00 51 1018.1
20260831024531 67 333 3.0 5.0 0.00 0.00 0.00 46 1018.0
20260831021531 69 287 4.0 8.0 0.00 0.00 0.00 42 1017.9
20260831020034 70 293 5.0 10.0 0.00 0.00 0.00 41 1018.0
20260831014534 71 293 5.0 12.0 0.00 0.00 0.00 40 1018.0
20260831013034 72 304 6.0 13.0 0.00 0.00 0.00 39 1018.0
20260831004531 73 305 5.0 10.0 0.00 0.00 0.00 37 1018.1
20260831003035 74 321 4.0 10.0 0.00 0.00 0.00 38 1018.1
20260831001529 75 315 4.0 9.0 0.00 0.00 0.00 37 1018.2
20260831000032 76 296 4.0 9.0 0.00 0.00 0.00 37 1018.3
20260830234642 77 304 3.0 9.0 0.00 0.00 0.00 36 1018.4
20260830231532 77 319 4.0 10.0 0.00 0.00 0.00 37 1018.6
20260830230110 78 314 5.0 13.0 0.00 0.00 0.00 36 1018.8
20260830224534 78 333 6.0 13.0 0.00 0.00 0.00 37 1019.0
20260830223030 78 294 7.0 20.0 0.00 0.00 0.00 36 1019.2